Location: Majestic Skies Ranch
(34.0000°N, 105.9300°W)
Time: 14:56:44
(UTC-07:00)

ISS - Visible Passes

Search period start: 17 January 2018 00:00
Search period end: 27 January 2018 00:00
Orbit: 402 x 407 km, 51.6° (Epoch: 17 January)

Date Brightness Start Highest point End Pass type
(mag) Time Alt. Az. Time Alt. Az. Time Alt. Az.
17 Jan -1.8 05:03:11 29° E 05:03:11 29° E 05:05:05 10° ESE visible
17 Jan -1.6 06:36:33 10° W 06:38:05 13° SW 06:39:37 10° SSW visible
18 Jan -2.6 05:46:10 26° SW 05:46:10 26° SW 05:48:47 10° S visible
19 Jan -0.9 04:56:32 13° SSE 04:56:32 13° SSE 04:57:00 10° SE visible
22 Jan -2.6 18:50:56 10° SSW 18:53:16 28° SSE 18:53:16 28° SSE visible
23 Jan -1.8 17:59:46 10° SSE 18:01:40 15° SE 18:03:33 10° E visible
23 Jan -1.3 19:34:47 10° WSW 19:36:16 22° W 19:36:16 22° W visible
24 Jan -3.9 18:42:13 10° SW 18:45:27 85° NW 18:46:29 40° NE visible
25 Jan -3.2 17:50:04 10° SSW 17:53:08 40° SE 17:56:13 10° ENE visible
25 Jan -1.3 19:27:25 10° WNW 19:29:17 17° NW 19:29:17 17° NW visible
26 Jan -2.3 18:34:14 10° WSW 18:37:10 31° NW 18:39:19 15° NNE visible
